Showing default

SKYSAT C8, 42990

Orbit data source: Space-Track

SKYSAT C8, 42990 is a payload satellite owned by Terra Bella (US) in SSO that was launched on Tue, 31 Oct 2017 UTC via a MINOTAUR-C 3210 launch vehicle from the Air Force Western Test Range (AFWTR). Payload-class satellites include a variety of spacecraft equipped with specific instruments for various scientific and technological missions. These include communications satellites like Starlink; space stations such as the ISS; scientific satellites like the Hubble; Earth observation satellites from companies like Planet Labs, Umbra, and HawkEye 360; GPS; miniature CubeSats for education and research; and military/defense satellites.

Loading next visibility...
Identifier
42990, 2017-068D
Orbit
SSO
Country
Flag of USUS
Related business
Manufacturer
Maxar SSL
Mission
Operational Commercial Imaging
Bus & Motor
SKYSAT-GEN2, Unknown motor
Mass
110 kg wet, 110 kg dry
Launch date (UTC)
2017-10-31 (8 years ago)
Launch vehicle
MINOTAUR-C 3210
Launch site
Air Force Western Test Range (AFWTR)
Object type
Payload
Rocket body
Debris
Shape & HBR
Box, 0.6 m
Radar Cross Section
0.888 m², Medium (>0.1 m² and < 1m²)

Expand to show TLE details & history
Last TLE update: 21 hours ago

TLE from 21 hours ago
0 SKYSAT C8
1 42990U 17068D   25260.17877870  .00010373  00000-0  33691-3 0  9995
2 42990  97.4188  29.9165 0001646 120.3675 239.7730 15.32119145440456
Epoch: 2025-09-17T04:17Z
TLE epoch observation values (Epoch: 2025-09-17T04:17:26.479Z)
Latitude
0.00001°
Longitude
-30.80228°
Altitude
473.165 km
Speed
7.629 km/s
True Right ascension
01h 59m 39s
True Declination
0° 00' 00"
Sunlit
Object was in full shadow at epoch
Visualization orbit readout
Latitude
Unknown
Longitude
Unknown
Altitude
Unknown
Speed
Unknown
Apparent Right ascension
Unknown
Apparent Declination
Unknown
Sunlit
N/A
Visualization observer readout
Local Sidereal Time
17:36:07
Azimuth
Unknown
Elevation
Unknown
Doppler factor
Unknown
Orbital elements
Apogee altitude
467.568 km
Perigee altitude
465.314 km
Semi-major axis
6,844.578 km
Eccentricity
0.00016
Inclination
97.4188°
RAAN
29.9165°
Arg. of periapsis
120.3675°
True anomaly
239.7567°
Mean anomaly
239.773°
Eccentric anomaly
239.76485°
Mean motion
3.83286 °/min
Orbital period
93.92 mins
BSTAR
0.00033691
Loading maneuver chart data...
Computing Atmospheric mass density...
Loading historical data...
Loading historical data...
Loading historical data...
Loading historical data...
Loading historical data...
Loading historical data...
Loading historical data...

Documentation

Showing up to 5 results
|